Location: Unspecified
(0.0000°N, 0.0000°E)
Time: 18:10:43
(UTC+02:00)

Cosmos 2369 Rocket - Visible Passes

Search period start: 24 August 2016 00:00
Search period end: 03 September 2016 00:00
Orbit: 830 x 851 km, 71.0° (Epoch: 24 August)

Date Brightness Start Highest point End Pass type
(mag) Time Alt. Az. Time Alt. Az. Time Alt. Az.
24 Aug 4.6 05:28:29 10° NNE 05:32:22 19° ENE 05:36:17 10° ESE visible
24 Aug 2.9 07:11:18 10° NW 07:16:06 29° WSW 07:20:56 10° SSW visible
25 Aug 4.6 05:13:24 10° NNE 05:17:03 18° ENE 05:20:43 10° ESE visible
25 Aug 2.8 06:55:52 10° NW 07:00:46 31° WSW 07:05:44 10° SSW visible
26 Aug 4.7 05:02:40 16° E 05:02:40 16° E 05:05:08 10° ESE visible
26 Aug 2.7 06:44:54 33° W 06:45:27 34° WSW 06:50:32 10° S visible
27 Aug 3.8 06:33:40 19° SSW 06:33:40 19° SSW 06:35:19 10° S visible
